Content
SEND FEEDBACK

Daily
Averages
Monthly
Summary
United States of America

CHANDLER, OKLAHOMA


Home > North America > United States > Oklahoma
Elevation: 930 feet     Latitude: 35 42N     Longitude: 096 53W

WEATHER
 
SELECT A DAY
Number of Records: 318,589;   Date Range: 3/28/01 - 11/25/14
 
SHARE

PRINT THIS DATA

[ ← Previous Day ]
WEATHER ALMANAC - JANUARY 31, 2013
[ Next Day → ]
[ °C ]   °F
Weather ElementAverageHighLow
Temperature38.8 °F59 °F (12:55 pm)26.6 °F (11:35 pm)
Dewpoint27.2 °F33.8 °F (1:35 pm)17.6 °F (10:35 pm)
Humidity65.3 %86 % (1:35 am)34 % (12:55 pm)
Barometer30.17 in30.44 in (9:55 pm)30.02 in (4:35 am)
Wind Speed6.9 mph11.5 mph (10:35 am)
Wind Gust16.1 mph (10:35 am)
Weather ElementAverage
Visibility10 mi
Wind DirectionESE (122.6 °)

Weather ElementTotal
Precipitation---
Heating Degree Days22.2 (Base 65)
Averaged from 68 records on January 31, 2013
WEATHER CONDITIONS BREAKOUT
WIND DIRECTION BREAKOUT
WEATHER BY HOUR - JANUARY 31, 2013
[ °C ]   °F
Local TimeTemperatureDewpointHumidityBarometerVisibilityWind DirectionWind SpeedGust SpeedPrecipitationEventsConditions
12:35 AM32.0 °F26.6 °F80 %30.05 in10.0 miSW (220°)4.6 mphClear
12:55 AM32.0 °F26.6 °F80 %30.05 in10.0 miSSW (210°)4.6 mphClear
1:15 AM32.0 °F26.6 °F80 %30.04 in10.0 miSouth (190°)5.8 mphClear
1:35 AM30.2 °F26.6 °F86 %30.04 in10.0 miSouth (190°)5.8 mphClear
1:55 AM30.2 °F26.6 °F86 %30.04 in10.0 miSSW (210°)6.9 mphClear
2:15 AM32.0 °F26.6 °F80 %30.04 in10.0 miSSW (210°)3.5 mphClear
2:35 AM32.0 °F26.6 °F80 %30.04 in10.0 miSW (230°)4.6 mphClear
2:55 AM32.0 °F26.6 °F80 %30.04 in10.0 miSW (230°)5.8 mphClear
3:15 AM32.0 °F26.6 °F80 %30.03 in10.0 miSW (230°)5.8 mphClear
3:35 AM32.0 °F26.6 °F80 %30.03 in10.0 miWSW (240°)6.9 mphClear
3:55 AM32.0 °F26.6 °F80 %30.03 in10.0 miWSW (250°)5.8 mphClear
4:15 AM32.0 °F26.6 °F80 %30.03 in10.0 miSW (230°)8.1 mphClear
4:35 AM32.0 °F26.6 °F80 %30.02 in10.0 miSW (230°)8.1 mphClear
4:55 AM32.0 °F26.6 °F80 %30.02 in10.0 miWSW (240°)6.9 mphClear
5:15 AM32.0 °F26.6 °F80 %30.02 in10.0 miSW (230°)6.9 mphClear
5:35 AM32.0 °F26.6 °F80 %30.02 in10.0 miSW (220°)6.9 mphClear
5:55 AM32.0 °F26.6 °F80 %30.03 in10.0 miSW (220°)6.9 mphClear
6:15 AM32.0 °F26.6 °F80 %30.04 in10.0 miSW (220°)6.9 mphClear
6:35 AM32.0 °F26.6 °F80 %30.04 in10.0 miSSW (210°)5.8 mphClear
6:55 AM32.0 °F26.6 °F80 %30.05 in10.0 miSW (220°)9.2 mphClear
7:15 AM32.0 °F26.6 °F80 %30.05 in10.0 miSW (220°)6.9 mphClear
7:35 AM33.8 °F26.6 °F75 %30.07 in10.0 miSW (230°)6.9 mphClear
7:55 AM33.8 °F26.6 °F75 %30.07 in10.0 miSW (230°)5.8 mphClear
8:15 AM35.6 °F26.6 °F70 %30.08 in10.0 miWSW (240°)4.6 mphClear
8:35 AM35.6 °F28.4 °F75 %30.08 in10.0 miSW (220°)5.8 mphClear
8:55 AM41.0 °F28.4 °F61 %30.08 in10.0 miSW (220°)6.9 mphClear
9:15 AM41.0 °F28.4 °F61 %30.08 in10.0 miSW (220°)8.1 mphClear
9:35 AM42.8 °F30.2 °F61 %30.09 in10.0 miSW (220°)6.9 mphClear
9:55 AM44.6 °F28.4 °F53 %30.09 in10.0 miSW (230°)5.8 mphClear
10:15 AM48.2 °F28.4 °F46 %30.09 in10.0 miSW (230°)9.2 mphClear
10:35 AM51.8 °F30.2 °F44 %30.08 in10.0 miSW (220°)11.5 mph16.1 mphClear
10:55 AM55.4 °F30.2 °F38 %30.12 in10.0 miNorthClear
11:15 AM53.6 °F30.2 °F41 %30.12 in10.0 miNorth (10°)9.2 mphClear
11:35 AM55.4 °F30.2 °F38 %30.12 in10.0 miNorthClear
12:15 PM55.4 °F30.2 °F38 %30.11 in10.0 miNNW (340°)3.5 mphClear
12:35 PM55.4 °F30.2 °F38 %30.11 in10.0 miNorth (360°)5.8 mphClear
12:55 PM59.0 °F30.2 °F34 %30.10 in10.0 miNorthClear
1:15 PM59.0 °F30.2 °F34 %30.11 in10.0 miNorth (360°)8.1 mphClear
1:35 PM57.2 °F33.8 °F41 %30.11 in10.0 miNorthClear
1:55 PM55.4 °F32.0 °F41 %30.12 in10.0 miNorthClear
2:15 PM55.4 °F32.0 °F41 %30.13 in10.0 miNorthClear
2:35 PM55.4 °F32.0 °F41 %30.14 in10.0 miNorthClear
2:55 PM53.6 °F33.8 °F47 %30.15 in10.0 miNorthClear
3:15 PM53.6 °F33.8 °F47 %30.16 in10.0 miNorthClear
3:35 PM51.8 °F33.8 °F50 %30.17 in10.0 miNorthClear
3:55 PM51.8 °F33.8 °F50 %30.19 in10.0 miNorthClear
4:15 PM46.4 °F32.0 °F57 %30.21 in10.0 miNorthClear
4:35 PM44.6 °F32.0 °F61 %30.23 in10.0 miNorthClear
4:55 PM44.6 °F32.0 °F61 %30.25 in10.0 miNNE (20°)8.1 mphClear
5:15 PM42.8 °F32.0 °F66 %30.27 in10.0 miNorthClear
5:35 PM41.0 °F32.0 °F70 %30.29 in10.0 miNorthClear
6:15 PM35.6 °F28.4 °F75 %30.34 in10.0 miNorthClear
6:35 PM33.8 °F28.4 °F81 %30.35 in10.0 miNorth (10°)9.2 mphClear
6:55 PM32.0 °F26.6 °F80 %30.38 in10.0 miNorth (10°)9.2 mphClear
7:15 PM32.0 °F26.6 °F80 %30.39 in10.0 miNorth (10°)9.2 mphClear
7:35 PM32.0 °F23.0 °F69 %30.40 in10.0 miNorth (10°)10.4 mphClear
7:55 PM32.0 °F23.0 °F69 %30.41 in10.0 miNNE (20°)6.9 mphClear
8:15 PM32.0 °F21.2 °F64 %30.42 in10.0 miNorth (10°)9.2 mphClear
8:35 PM30.2 °F21.2 °F69 %30.43 in10.0 miNorth (10°)9.2 mphClear
9:15 PM30.2 °F21.2 °F69 %30.43 in10.0 miNNE (20°)6.9 mphClear
9:35 PM30.2 °F21.2 °F69 %30.43 in10.0 miNNE (20°)4.6 mphClear
9:55 PM30.2 °F21.2 °F69 %30.44 in10.0 miNorth (10°)6.9 mphClear
10:15 PM28.4 °F19.4 °F69 %30.44 in10.0 miNNE (30°)5.8 mphClear
10:35 PM28.4 °F17.6 °F64 %30.43 in10.0 miNNE (30°)8.1 mphClear
10:55 PM28.4 °F17.6 °F64 %30.43 in10.0 miNE (40°)9.2 mphClear
11:15 PM28.4 °F17.6 °F64 %30.42 in10.0 miNE (50°)5.8 mphClear
11:35 PM26.6 °F17.6 °F69 %30.42 in10.0 miNNE (30°)5.8 mphClear
11:55 PM26.6 °F17.6 °F69 %30.42 in10.0 miNNE (30°)5.8 mphClear
Hourly data recorded from KCQB, located miles away from Chandler, Oklahoma







STORIES FROM OUR PARTNERS